Vichy, MO

4:04 PM CDT on August 29, 2016 (GMT -0500)
Rolla National

Weather History for KVIH - January, 2012

Change the Weather History Date:

Sunday, January 22, 2012

  Actual Average Record
Temperature  
Mean Temperature 41 °F 31 °F  
Max Temperature 54 °F 41 °F 72 °F (1967)
Min Temperature 28 °F 21 °F -1 °F (1959)
Degree Days  
Heating Degree Days 24 34  
Month to date heating degree days 609 748  
Since 1 July heating degree days 2298 2665  
Cooling Degree Days 0 0  
Month to date cooling degree days 0 0  
Year to date cooling degree days 0 0  
Moisture  
Dew Point 39 °F    
Average Humidity 89    
Maximum Humidity 100    
Minimum Humidity 77    
Precipitation  
Precipitation 0.00 in 0.06 in 0.52 in (1957)
Month to date precipitation 0.60 1.62  
Year to date precipitation 0.60 1.62  
Sea Level Pressure  
Sea Level Pressure 29.67 in    
Wind  
Wind Speed 16 mph (SSE)    
Max Wind Speed 26 mph    
Max Gust Speed 36 mph    
Visibility 6 miles    
Events Fog    
T = Trace of Precipitation, MM = Missing Value Source: NWS Daily Summary

Daily Weather History Graph

Daily Weather History Graph

Search for Another Location

Airport or City:

Trip Planner

Search our weather history database for the weather conditions in past years. The results will help you decide how hot, cold, wet, or windy it might be!

Date:

Astronomy

Jan. 22, 2012 Rise Set
Actual Time 7:19 AM CST 5:18 PM CST
Civil Twilight 6:50 AM CST 5:46 PM CST
Nautical Twilight 6:18 AM CST 6:18 PM CST
Astronomical Twilight 5:47 AM CST 6:50 PM CST
Moon 6:36 AM CST (1/22) 5:00 PM CST (1/22)
Length of Visible Light 10h 55m
Length of Day
9h 59m
Waning Crescent, 0% of the Moon is Illuminated
Jan 22
Waning Crescent
Jan 23
New
Jan 30
First Quarter
Feb 7
Full
Feb 14
Last Quarter

Hourly Weather History & Observations

Time (CST) Temp. Windchill Dew Point Humidity Pressure Visibility Wind Dir Wind Speed Gust Speed Precip Events Conditions
12:32 AM 28.4 °F 17.5 °F 24.8 °F 86% 29.88 in 8.0 mi SE 13.8 mph 20.7 mph N/A   Overcast
12:53 AM 28.0 °F 17.5 °F 26.1 °F 92% 29.91 in 7.0 mi SE 12.7 mph - N/A   Overcast
1:53 AM 28.9 °F 19.2 °F 27.0 °F 92% 29.92 in 7.0 mi South 11.5 mph - N/A   Overcast
2:22 AM 28.4 °F 19.7 °F 26.6 °F 93% 29.87 in - SSE 9.2 mph - N/A   Unknown
2:53 AM 30.0 °F 20.0 °F 28.0 °F 92% 29.90 in 5.0 mi SSE 12.7 mph 19.6 mph N/A   Mist
3:03 AM 30.2 °F 20.8 °F 28.4 °F 93% 29.87 in 5.0 mi SSE 11.5 mph - N/A   Overcast
3:40 AM 30.2 °F 20.8 °F 28.4 °F 93% 29.85 in 1.8 mi SSE 11.5 mph 20.7 mph N/A   Overcast
3:53 AM 30.0 °F 19.1 °F 28.9 °F 96% 29.86 in 1.2 mi SE 15.0 mph - N/A   Overcast
4:20 AM 30.2 °F 19.8 °F 28.4 °F 93% 29.80 in 0.8 mi SE 13.8 mph - N/A   Overcast
4:49 AM 30.2 °F 18.1 °F 30.2 °F 100% 29.81 in 1.0 mi SSE 18.4 mph - N/A   Overcast
4:53 AM 30.0 °F 18.7 °F 30.0 °F 100% 29.85 in 1.0 mi SSE 16.1 mph - N/A   Overcast
5:53 AM 30.9 °F 20.2 °F 30.0 °F 96% 29.82 in 1.0 mi SE 15.0 mph 20.7 mph N/A   Overcast
6:53 AM 32.0 °F 21.2 °F 32.0 °F 100% 29.78 in 1.2 mi SSE 16.1 mph 23.0 mph N/A   Overcast
7:37 AM 33.8 °F 23.5 °F 33.8 °F 100% 29.72 in 0.5 mi SSE 16.1 mph 24.2 mph N/A Fog Fog
7:53 AM 34.0 °F 23.4 °F 33.1 °F 96% 29.75 in 0.5 mi SSE 17.3 mph - N/A Fog Fog
8:53 AM 36.0 °F 25.3 °F 36.0 °F 100% 29.74 in 0.8 mi SSE 19.6 mph 28.8 mph N/A   Overcast
9:19 AM 37.4 °F 26.6 °F 37.4 °F 100% 29.71 in 1.5 mi South 21.9 mph 25.3 mph N/A   Overcast
9:29 AM 37.4 °F 26.9 °F 37.4 °F 100% 29.71 in 2.0 mi South 20.7 mph 28.8 mph N/A   Overcast
9:53 AM 37.4 °F 27.5 °F 37.4 °F 100% 29.71 in 2.0 mi SSE 18.4 mph 27.6 mph N/A   Overcast
10:38 AM 39.2 °F 29.8 °F 37.4 °F 93% 29.69 in 4.0 mi SSE 18.4 mph 24.2 mph N/A   Overcast
10:53 AM 39.9 °F 31.4 °F 37.9 °F 93% 29.71 in 6.0 mi SSE 16.1 mph 25.3 mph N/A   Overcast
11:18 AM 41.0 °F 33.1 °F 39.2 °F 93% 29.67 in 8.0 mi SSE 15.0 mph 26.5 mph N/A   Overcast
11:53 AM 43.0 °F 36.0 °F 41.0 °F 93% 29.67 in 10.0 mi South 13.8 mph 24.2 mph N/A   Overcast
12:53 PM 46.9 °F - 43.0 °F 86% 29.62 in 10.0 mi SSE 23.0 mph 34.5 mph N/A   Overcast
1:53 PM 50.0 °F - 44.6 °F 82% 29.57 in 10.0 mi South 20.7 mph 27.6 mph N/A   Overcast
2:03 PM 51.8 °F - 46.4 °F 82% 29.57 in 10.0 mi South 18.4 mph 27.6 mph N/A   Overcast
2:53 PM 50.0 °F - 46.0 °F 86% 29.57 in 10.0 mi South 16.1 mph 29.9 mph N/A   Overcast
3:53 PM 48.9 °F - 46.0 °F 90% 29.55 in 6.0 mi SSE 17.3 mph - N/A   Overcast
4:11 PM 48.2 °F - 46.4 °F 93% 29.53 in 2.5 mi South 19.6 mph 25.3 mph N/A   Overcast
4:21 PM 48.2 °F - 46.4 °F 93% 29.53 in 3.0 mi South 13.8 mph 25.3 mph N/A   Overcast
4:37 PM 48.2 °F - 46.4 °F 93% 29.53 in 2.5 mi SSE 13.8 mph 24.2 mph N/A   Overcast
4:53 PM 48.0 °F - 46.9 °F 96% 29.55 in 4.0 mi SSE 17.3 mph 21.9 mph N/A   Overcast
5:53 PM 48.2 °F - 48.2 °F 100% 29.52 in 7.0 mi South 17.3 mph 24.2 mph N/A   Overcast
6:22 PM 50.0 °F - 48.2 °F 94% 29.52 in 10.0 mi South 18.4 mph 26.5 mph N/A   Overcast
6:53 PM 53.1 °F - 48.9 °F 86% 29.54 in 10.0 mi SSW 19.6 mph 27.6 mph N/A   Overcast
7:01 PM 53.6 °F - 48.2 °F 82% 29.53 in 10.0 mi SSW 20.7 mph 28.8 mph N/A   Overcast
7:53 PM 51.1 °F - 48.0 °F 89% 29.49 in 10.0 mi South 10.4 mph 19.6 mph N/A   Partly Cloudy
8:53 PM 51.1 °F - 48.0 °F 89% 29.46 in 10.0 mi South 11.5 mph - N/A   Clear
9:53 PM 53.1 °F - 46.9 °F 80% 29.44 in 10.0 mi South 12.7 mph - N/A   Mostly Cloudy
10:53 PM 53.1 °F - 46.0 °F 77% 29.43 in 10.0 mi South 10.4 mph - N/A   Overcast
11:53 PM 53.1 °F - 45.0 °F 74% 29.41 in 9.0 mi SSW 12.7 mph - N/A   Overcast